Telluride, CO

4:20 AM MDT on March 28, 2017 (GMT -0600)
Telluride Regional

Weather History for KTEX - August, 2012

Change the Weather History Date:

Monday, August 6, 2012

  Actual Average Record
Temperature  
Mean Temperature 62 °F -  
Max Temperature 73 °F 70 °F 76 °F (2015)
Min Temperature 51 °F 48 °F 44 °F (2004)
Degree Days  
Heating Degree Days 3    
Growing Degree Days 12 (Base 50)    
Moisture  
Dew Point 47 °F    
Average Humidity 66    
Maximum Humidity 100    
Minimum Humidity 33    
Precipitation  
Precipitation 0.02 in - - ()
Sea Level Pressure  
Sea Level Pressure 30.61 in    
Wind  
Wind Speed 4 mph (SSE)    
Max Wind Speed 13 mph    
Max Gust Speed 22 mph    
Visibility 10 miles    
Events Rain , Thunderstorm    
Averages and records for this station are not official NWS values.
T = Trace of Precipitation, MM = Missing Value Source: NWS Daily Summary

Daily Weather History Graph

Daily Weather History Graph

Search for Another Location

Airport or City:

Trip Planner

Search our weather history database for the weather conditions in past years. The results will help you decide how hot, cold, wet, or windy it might be!

Date:

Astronomy

Aug. 06, 2012 Rise Set
Actual Time 6:19 AM MDT 8:14 PM MDT
Civil Twilight 5:50 AM MDT 8:43 PM MDT
Nautical Twilight 5:15 AM MDT 9:18 PM MDT
Astronomical Twilight 4:38 AM MDT 9:55 PM MDT
Moon 10:31 PM MDT (8/6) 11:05 AM MDT (8/6)
Length of Visible Light 14h 52m
Length of Day
13h 55m
Waning Gibbous, 78% of the Moon is Illuminated
Aug 6
Waning Gibbous
Aug 9
Last Quarter
Aug 17
New
Aug 24
First Quarter
Aug 31
Full

Hourly Weather History & Observations

Time (MDT) Temp. Dew Point Humidity Pressure Visibility Wind Dir Wind Speed Gust Speed Precip Events Conditions
12:15 AM 55.4 °F 50.0 °F 82% 30.64 in 10.0 mi ESE 6.9 mph - N/A   Light Drizzle
12:35 AM 53.6 °F 50.0 °F 88% 30.63 in 10.0 mi East 6.9 mph - N/A   Mostly Cloudy
12:55 AM 55.4 °F 48.2 °F 77% 30.62 in 10.0 mi Calm Calm - N/A   Overcast
1:15 AM 55.4 °F 46.4 °F 72% 30.62 in 10.0 mi Calm Calm - N/A   Mostly Cloudy
1:35 AM 55.4 °F 44.6 °F 67% 30.62 in 10.0 mi Calm Calm - N/A   Overcast
1:55 AM 55.4 °F 44.6 °F 67% 30.62 in 10.0 mi Calm Calm - N/A   Overcast
2:15 AM 55.4 °F 44.6 °F 67% 30.61 in 10.0 mi Calm Calm - N/A   Overcast
2:35 AM 55.4 °F 46.4 °F 72% 30.61 in 10.0 mi South 5.8 mph - N/A   Overcast
2:55 AM 55.4 °F 46.4 °F 72% 30.62 in 10.0 mi Calm Calm - N/A   Overcast
3:15 AM 55.4 °F 46.4 °F 72% 30.61 in 10.0 mi Calm Calm - N/A   Overcast
3:35 AM 53.6 °F 46.4 °F 77% 30.62 in 10.0 mi Calm Calm - N/A   Overcast
3:55 AM 53.6 °F 46.4 °F 77% 30.62 in 10.0 mi Calm Calm - N/A   Scattered Clouds
4:15 AM 53.6 °F 46.4 °F 77% 30.62 in 10.0 mi Calm Calm - N/A   Clear
4:35 AM 53.6 °F 46.4 °F 77% 30.62 in 10.0 mi Calm Calm - N/A   Scattered Clouds
4:55 AM 53.6 °F 48.2 °F 82% 30.62 in 10.0 mi ESE 3.5 mph - N/A   Clear
5:15 AM 51.8 °F 46.4 °F 82% 30.63 in 10.0 mi Calm Calm - N/A   Clear
5:35 AM 51.8 °F 46.4 °F 82% 30.63 in 10.0 mi ESE 3.5 mph - N/A   Clear
5:55 AM 51.8 °F 46.4 °F 82% 30.63 in 10.0 mi SE 4.6 mph - N/A   Clear
6:15 AM 51.8 °F 46.4 °F 82% 30.63 in 10.0 mi ESE 8.1 mph - N/A   Clear
6:35 AM 51.8 °F 46.4 °F 82% 30.64 in 10.0 mi SE 4.6 mph - N/A   Clear
6:55 AM 51.8 °F 46.4 °F 82% 30.64 in 10.0 mi ESE 3.5 mph - N/A   Clear
7:15 AM 51.8 °F 46.4 °F 82% 30.64 in 10.0 mi ESE 5.8 mph - N/A   Clear
7:35 AM 53.6 °F 46.4 °F 77% 30.64 in 10.0 mi East 3.5 mph - N/A   Scattered Clouds
7:55 AM 53.6 °F 44.6 °F 72% 30.65 in 10.0 mi East 3.5 mph - N/A   Mostly Cloudy
8:15 AM 55.4 °F 46.4 °F 72% 30.65 in 10.0 mi Calm Calm - N/A   Mostly Cloudy
8:35 AM 55.4 °F 44.6 °F 67% 30.64 in 10.0 mi Calm Calm - N/A   Scattered Clouds
8:55 AM 59.0 °F 46.4 °F 63% 30.64 in 10.0 mi Calm Calm - N/A   Clear
9:15 AM 59.0 °F 44.6 °F 59% 30.64 in 10.0 mi Calm Calm - N/A   Clear
9:35 AM 60.8 °F 44.6 °F 55% 30.64 in 10.0 mi Calm Calm - N/A   Clear
9:55 AM 62.6 °F 44.6 °F 52% 30.64 in 10.0 mi Calm Calm - N/A   Clear
10:15 AM 64.4 °F 46.4 °F 52% 30.64 in 10.0 mi West 3.5 mph - N/A   Clear
10:35 AM 66.2 °F 46.4 °F 49% 30.63 in 10.0 mi Calm Calm - N/A   Clear
10:55 AM 68.0 °F 46.4 °F 46% 30.63 in 10.0 mi West 3.5 mph - N/A   Clear
11:15 AM 68.0 °F 44.6 °F 43% 30.63 in 10.0 mi WSW 4.6 mph - N/A   Clear
11:35 AM 69.8 °F 44.6 °F 40% 30.63 in 10.0 mi West 6.9 mph - N/A   Clear
11:55 AM 69.8 °F 44.6 °F 40% 30.62 in 10.0 mi West 8.1 mph - N/A   Clear
12:15 PM 69.8 °F 44.6 °F 40% 30.61 in 10.0 mi SSW 3.5 mph - N/A   Scattered Clouds
12:35 PM 71.6 °F 44.6 °F 38% 30.60 in 10.0 mi West 11.5 mph 17.3 mph N/A   Scattered Clouds
12:55 PM 71.6 °F 42.8 °F 35% 30.60 in 10.0 mi WSW 9.2 mph - N/A Thunderstorm Clear
1:15 PM 71.6 °F 44.6 °F 38% 30.59 in 10.0 mi West 10.4 mph 16.1 mph N/A   Mostly Cloudy
1:35 PM 71.6 °F 44.6 °F 38% 30.59 in 10.0 mi West 9.2 mph - N/A   Mostly Cloudy
1:55 PM 71.6 °F 42.8 °F 35% 30.59 in 10.0 mi WSW 5.8 mph - N/A   Overcast
2:15 PM 71.6 °F 42.8 °F 35% 30.57 in 10.0 mi SW 9.2 mph - N/A   Mostly Cloudy
2:35 PM 73.4 °F 42.8 °F 33% 30.57 in 10.0 mi WSW 8.1 mph 16.1 mph N/A Thunderstorm Mostly Cloudy
2:55 PM 71.6 °F 42.8 °F 35% 30.57 in 10.0 mi SW 9.2 mph - N/A Thunderstorm Mostly Cloudy
3:15 PM 69.8 °F 48.2 °F 46% 30.57 in 10.0 mi ENE 4.6 mph - N/A Thunderstorm Thunderstorm
3:35 PM 66.2 °F 46.4 °F 49% 30.58 in 10.0 mi SSE 12.7 mph 21.9 mph N/A Thunderstorm Mostly Cloudy
3:55 PM 66.2 °F 50.0 °F 56% 30.58 in 10.0 mi SE 5.8 mph - N/A Thunderstorm Overcast
4:15 PM 64.4 °F 50.0 °F 59% 30.58 in 10.0 mi SSE 11.5 mph 16.1 mph N/A Thunderstorm Thunderstorm
4:35 PM 62.6 °F 50.0 °F 63% 30.59 in 10.0 mi SSW 6.9 mph - N/A Thunderstorm Thunderstorm
4:55 PM 60.8 °F 50.0 °F 68% 30.59 in 10.0 mi SSE 8.1 mph - N/A Rain , Thunderstorm Light Thunderstorms and Rain
5:15 PM 60.8 °F 51.8 °F 72% 30.61 in 10.0 mi SW 4.6 mph - N/A Rain , Thunderstorm Light Thunderstorms and Rain
5:35 PM 59.0 °F 53.6 °F 82% 30.61 in 10.0 mi Calm Calm - 0.01 in Rain , Thunderstorm Rain
5:55 PM 59.0 °F 53.6 °F 82% 30.61 in 7.0 mi Calm Calm - 0.01 in Rain Rain
6:15 PM 57.2 °F 53.6 °F 88% 30.60 in 10.0 mi ESE 8.1 mph - 0.01 in Rain Rain
10:15 PM 55.4 °F 53.6 °F 94% 30.61 in 10.0 mi SE 10.4 mph - N/A Rain Rain
10:35 PM 53.6 °F 53.6 °F 100% 30.60 in 10.0 mi ESE 8.1 mph - N/A   Mostly Cloudy
10:55 PM 55.4 °F 51.8 °F 88% 30.60 in 10.0 mi East 4.6 mph - N/A   Scattered Clouds
11:15 PM 53.6 °F 51.8 °F 94% 30.59 in 10.0 mi East 3.5 mph - N/A   Mostly Cloudy
11:35 PM 55.4 °F 51.8 °F 88% 30.58 in 10.0 mi Calm Calm - N/A   Mostly Cloudy
11:55 PM 55.4 °F 51.8 °F 88% 30.57 in 10.0 mi Calm Calm - N/A   Scattered Clouds